[[{"header":{"parameterUnit":"m.s-1","parameterCategory":1,"la1":30.2991,"la2":30.254,"lo1":-89.0895,"lo2":-89.0444,"dy":0.0017,"dx":0.0017,"nx":28,"ny":28,"refTime":"2025-06-12T21:00:00:Z","depth":0,"parameterNumber":2,"parameterNumberName":"U-component_of_WINDS"},"data":[0,0,0,0,0,0,0,0,0,0,0,0,0,0,0,0,0,0,0,0,0,0,0,0,0,0,0,0,0,0,0,0,0,0,0,0,0,0,0,0,0,0,0,0,0,0,0,0,0,0,0,0,0,0,0,0,0,0,0.4055,0.4055,0,0.4086,0.4086,0.4087,0.408,0.4079,0.4078,0.4078,0.4111,0.4113,0.4114,0,0,0,0,0,0,0,0,0,0,0,0,0,0.3988,0.3989,0.4054,0.4055,0.4055,0.4086,0.4086,0.4087,0.408,0.4079,0.4078,0.4078,0.4111,0.4113,0.4114,0,0,0,0,0,0,0,0,0,0,0,0,0,0.4018,0.399,0.4054,0.4055,0.4056,0.4086,0.4086,0.4087,0.408,0.4079,0.4078,0.4077,0.411,0.4112,0.4115,0.4146,0,0,0.4121,0.4122,0,0,0,0,0,0,0,0,0.4016,0.402,0.4055,0.4055,0.4056,0.4078,0.4075,0.4107,0.408,0.4071,0.4078,0.4077,0.4101,0.4104,0.4112,0.4148,0.4149,0.4121,0.4123,0.4124,0.4124,0,0,0,0,0,0,0,0.4014,0.4019,0.4067,0.4055,0.4056,0.4054,0.4058,0.4081,0.4091,0.4072,0.4071,0.4075,0.4101,0.411,0.4113,0.415,0.4121,0.4123,0.4125,0.4125,0.4211,0.4212,0,0,0,0,0,0,0.4012,0.4017,0.4066,0.4068,0.4033,0.4056,0.406,0.4072,0.409,0.4092,0.4076,0.4074,0.4107,0.411,0.4114,0.415,0.4124,0.4126,0.4127,0.421,0.4211,0.4212,0,0,0,0,0,0,0.401,0.4016,0.4065,0.4043,0.4049,0.4058,0.4072,0.4073,0.4081,0.4093,0.4095,0.4083,0.4106,0.4111,0.4138,0.4152,0.4127,0.4129,0.4209,0.421,0.4212,0.4225,0,0,0,0,0,0,0.4008,0.4016,0.4028,0.4043,0.405,0.4088,0.4073,0.4074,0.4085,0.4084,0.41,0.4102,0.4106,0.4134,0.414,0.4154,0.413,0.4208,0.4209,0.4211,0.4223,0.4227,0.423,0,0,0,0,0,0.4006,0.4031,0.4028,0.4034,0.4065,0.4089,0.4093,0.4096,0.4086,0.4098,0.4106,0.4102,0.4149,0.4137,0.4143,0.4158,0.4207,0.4209,0.4211,0.4222,0.4226,0.4229,0,0,0,0,0,0,0.4018,0.4033,0.403,0.4061,0.4074,0.4088,0.4103,0.41,0.4116,0.4115,0.4118,0.4122,0.4149,0.4156,0.4143,0.4189,0.4177,0.418,0.4183,0.4187,0.419,0.4187,0.4132,0,0,0,0,0,0.4024,0.4042,0.4054,0.408,0.4086,0.4094,0.4104,0.4105,0.4119,0.4124,0.4133,0.4147,0.4164,0.4176,0.4193,0.4224,0.4227,0.4238,0.4241,0.4243,0.4246,0.4262,0.4266,0.4219,0.4219,0.4219,0,0,0.4037,0.4047,0.4059,0.4083,0.4092,0.4111,0.4098,0.4118,0.4132,0.4127,0.4153,0.416,0.4175,0.4204,0.4217,0.4211,0.426,0.4246,0.4248,0.425,0.4264,0.4269,0.4273,0.4221,0.422,0.422,0,0,0.407,0.408,0.4101,0.4111,0.4126,0.4131,0.4136,0.415,0.4154,0.418,0.4176,0.4192,0.4223,0.4234,0.4243,0.4278,0.4274,0.4284,0.43,0.4315,0.4319,0.4322,0.4333,0.4337,0.4286,0.4286,0.4287,0,0.4084,0.4111,0.4113,0.4133,0.4143,0.4139,0.4161,0.417,0.419,0.4197,0.419,0.4228,0.4238,0.4268,0.4276,0.4285,0.429,0.4281,0.4318,0.4321,0.4324,0.4335,0.4339,0.4287,0.4287,0.4287,0.4287,0,0.4127,0.4146,0.4162,0.418,0.4192,0.4213,0.4217,0.4229,0.4229,0.4234,0.4259,0.4271,0.429,0.4297,0.4298,0.4327,0.4323,0.4317,0.4304,0.4329,0.434,0.4344,0.4289,0.4288,0.4288,0.4288,0,0,0.4169,0.4187,0.4192,0.42,0.4215,0.423,0.425,0.4267,0.4277,0.4291,0.4307,0.4333,0.4327,0.4337,0.4339,0.4352,0.4377,0.4344,0.4345,0.4349,0.4409,0.4413,0.4417,0.4375,0.4376,0.4377,0.4407,0,0.4202,0.4237,0.4238,0.427,0.4286,0.4282,0.43,0.4311,0.4316,0.4331,0.4337,0.4354,0.4346,0.4352,0.4365,0.4371,0.4389,0.4369,0.439,0.4391,0.4385,0.4423,0.4427,0.4456,0.4411,0.4412,0.4413,0,0.4245,0.4259,0.4291,0.4303,0.431,0.4326,0.4341,0.4355,0.4368,0.437,0.4381,0.4381,0.4401,0.4388,0.4415,0.4402,0.441,0.4415,0.4416,0.4417,0.4403,0.4424,0.4465,0.4469,0.4419,0.4419,0.4418,0,0.427,0.4297,0.432,0.4326,0.4341,0.4351,0.4358,0.4369,0.4379,0.4393,0.4399,0.4416,0.4424,0.4437,0.444,0.4431,0.4467,0.4455,0.4469,0.4469,0.4477,0.4476,0.4518,0.4484,0.4484,0.4484,0.4484,0,0.4306,0.4326,0.4331,0.4345,0.4367,0.4368,0.439,0.4396,0.4406,0.4421,0.4419,0.4433,0.4437,0.4451,0.4454,0.4476,0.448,0.4482,0.4483,0.4482,0.4482,0.4487,0.4485,0.4485,0.4485,0.4484,0.4484,0,0.4338,0.4342,0.4366,0.4377,0.438,0.4396,0.4406,0.4419,0.4423,0.4442,0.4446,0.4453,0.447,0.4475,0.4496,0.4497,0.4522,0.4521,0.4518,0.4517,0.4531,0.4529,0.4578,0.4584,0.4546,0.4547,0.4547,0,0.436,0.4375,0.4387,0.4397,0.4403,0.4419,0.4428,0.4431,0.4441,0.4455,0.4466,0.4483,0.4496,0.4523,0.453,0.4546,0.4545,0.456,0.4547,0.4545,0.4543,0.4542,0.4543,0.4563,0.4563,0.4563,0.4564,0,0.4399,0.4399,0.4413,0.4427,0.4438,0.445,0.4461,0.4469,0.4473,0.4484,0.4501,0.4511,0.4531,0.4547,0.4563,0.457,0.4567,0.4568,0.4572,0.4571,0.4567,0.4568,0.4524,0.4567,0.4566,0.4566,0.4566,0.4566,0.4425,0.4438,0.4448,0.4463,0.4471,0.4481,0.4493,0.4499,0.4513,0.4529,0.4529,0.4547,0.4558,0.4578,0.4586,0.46,0.4595,0.4602,0.4603,0.4604,0.4605,0.4566,0.4603,0.4603,0.4603,0.4603,0.4603,0,0.4463,0.4468,0.4482,0.4497,0.4508,0.4504,0.4516,0.4526,0.4542,0.4552,0.4564,0.4583,0.4598,0.4606,0.4621,0.4631,0.463,0.4635,0.4634,0.4635,0.4609,0.4603,0.4635,0.4635,0.4635,0.4635,0.4635,0.4635,0.4483,0.4504,0.4505,0.453,0.4536,0.4552,0.4559,0.4568,0.4576,0.4597,0.4609,0.4614,0.4623,0.4638,0.4652,0.4654,0.4659,0.4664,0.4666,0.464,0.4637,0.4634,0.4629,0.4666,0.4666,0.4691,0.4691,0.4691]},{"header":{"parameterUnit":"m.s-1","parameterCategory":1,"la1":30.2991,"la2":30.254,"lo1":-89.0895,"lo2":-89.0444,"dy":0.0017,"dx":0.0017,"nx":28,"ny":28,"refTime":"2025-06-12T21:00:00:Z","depth":0,"parameterNumber":3,"parameterNumberName":"V-component_of_WINDS"},"data":[0,0,0,0,0,0,0,0,0,0,0,0,0,0,0,0,0,0,0,0,0,0,0,0,0,0,0,0,0,0,0,0,0,0,0,0,0,0,0,0,0,0,0,0,0,0,0,0,0,0,0,0,0,0,0,0,0,0,4.1824,4.1825,0,4.1908,4.1909,4.191,4.1884,4.1882,4.1881,4.1879,4.1958,4.1962,4.1965,0,0,0,0,0,0,0,0,0,0,0,0,0,4.1632,4.1636,4.1824,4.1825,4.1826,4.1908,4.1909,4.191,4.1884,4.1882,4.188,4.1878,4.1957,4.1961,4.1966,0,0,0,0,0,0,0,0,0,0,0,0,0,4.1716,4.1637,4.1823,4.1823,4.1824,4.1907,4.1909,4.191,4.1885,4.1882,4.188,4.1877,4.1955,4.1961,4.1966,4.2053,0,0,4.1983,4.1986,0,0,0,0,0,0,0,0,4.1711,4.1723,4.1822,4.1823,4.1824,4.1883,4.187,4.1958,4.1886,4.1862,4.1879,4.1876,4.1935,4.1942,4.1963,4.2056,4.206,4.1984,4.1987,4.199,4.1991,0,0,0,0,0,0,0,4.1705,4.1719,4.1857,4.1823,4.1825,4.1816,4.1825,4.1887,4.1911,4.1863,4.1862,4.1873,4.1935,4.1958,4.1965,4.2061,4.1984,4.1989,4.1992,4.1994,4.2227,4.2229,0,0,0,0,0,0,4.17,4.1714,4.1854,4.1859,4.176,4.1821,4.1832,4.1867,4.1911,4.1915,4.1875,4.1871,4.1949,4.1958,4.1967,4.207,4.1989,4.1995,4.1998,4.2224,4.2227,4.223,0,0,0,0,0,0,4.1696,4.1713,4.1851,4.1786,4.1803,4.1828,4.1867,4.187,4.1893,4.1919,4.1923,4.1894,4.1948,4.1959,4.2032,4.2072,4.1997,4.2002,4.222,4.2225,4.2229,4.2277,0,0,0,0,0,0,4.1691,4.1711,4.1747,4.1788,4.1807,4.1916,4.187,4.1873,4.1903,4.1899,4.1939,4.1942,4.1947,4.2023,4.2037,4.2079,4.2007,4.2217,4.2222,4.2227,4.2272,4.2282,4.2291,0,0,0,0,0,4.1684,4.1756,4.1749,4.1766,4.1852,4.1919,4.1929,4.1935,4.1907,4.1941,4.1957,4.1941,4.2066,4.2031,4.2046,4.209,4.2214,4.2221,4.2227,4.2267,4.228,4.2291,0,0,0,0,0,0,4.1717,4.1761,4.1754,4.1842,4.1877,4.1914,4.1958,4.1948,4.199,4.1985,4.1987,4.1996,4.207,4.2087,4.2048,4.2175,4.2135,4.2145,4.2161,4.2173,4.2183,4.2177,4.2011,0,0,0,0,0,4.1735,4.1788,4.1823,4.1897,4.1915,4.1934,4.1963,4.1964,4.1999,4.2013,4.2035,4.2068,4.2114,4.2145,4.2189,4.2274,4.2281,4.2311,4.2321,4.2329,4.2337,4.2381,4.2394,4.2251,4.2251,4.2251,0,0,4.1772,4.1803,4.1836,4.1904,4.1932,4.1984,4.1946,4.2003,4.2041,4.2021,4.2091,4.2108,4.2145,4.2223,4.2259,4.224,4.2378,4.2337,4.2343,4.2347,4.2389,4.2402,4.2414,4.2255,4.2255,4.2254,0,0,4.1866,4.1895,4.196,4.1988,4.203,4.2042,4.2057,4.2096,4.2107,4.2178,4.2163,4.2207,4.2287,4.2313,4.2337,4.2439,4.2425,4.2453,4.2504,4.2546,4.2558,4.2568,4.2602,4.2615,4.2461,4.2461,4.2461,0,4.1905,4.1986,4.1993,4.2052,4.2081,4.2067,4.213,4.2156,4.221,4.2229,4.2208,4.2308,4.2331,4.2415,4.2439,4.246,4.2475,4.2449,4.2556,4.2566,4.2575,4.2608,4.2622,4.2464,4.2464,4.2464,4.2463,0,4.2032,4.2088,4.2134,4.2189,4.2223,4.2283,4.2296,4.233,4.2327,4.234,4.241,4.2438,4.2487,4.2507,4.2505,4.2589,4.2576,4.2556,4.2516,4.2592,4.2623,4.2636,4.2469,4.2468,4.2467,4.2466,0,0,4.215,4.2207,4.2223,4.2247,4.2292,4.2334,4.2392,4.2442,4.247,4.2507,4.2554,4.2621,4.2602,4.2629,4.2629,4.2667,4.2743,4.2641,4.2642,4.2658,4.2836,4.2851,4.2866,4.2734,4.2737,4.2739,4.2832,0,4.2246,4.2352,4.2359,4.2453,4.2503,4.249,4.254,4.2571,4.2584,4.2626,4.2639,4.2687,4.2659,4.2675,4.2712,4.2727,4.2779,4.272,4.2776,4.2778,4.2767,4.2882,4.2898,4.2985,4.2845,4.2847,4.2848,0,4.2373,4.2416,4.2516,4.2553,4.2574,4.2619,4.2664,4.2706,4.274,4.2746,4.2776,4.277,4.2827,4.2786,4.2862,4.2822,4.2845,4.2855,4.2858,4.2863,4.2817,4.2888,4.3013,4.3026,4.2868,4.2866,4.2865,0,4.2447,4.2529,4.2599,4.262,4.2665,4.2697,4.2716,4.2748,4.2777,4.2815,4.2834,4.2877,4.2901,4.2934,4.2939,4.2909,4.3014,4.2974,4.3019,4.3019,4.3042,4.304,4.3171,4.3058,4.3058,4.3058,4.3058,0,4.2554,4.2615,4.2633,4.2676,4.2743,4.2749,4.2814,4.2831,4.2859,4.2903,4.2893,4.2934,4.2939,4.298,4.2984,4.3045,4.3056,4.3061,4.3061,4.3061,4.3061,4.3076,4.3069,4.3061,4.3061,4.306,4.3059,0,4.2647,4.2662,4.2738,4.2774,4.2784,4.2832,4.2862,4.2901,4.2913,4.2968,4.2981,4.2999,4.3046,4.3055,4.3111,4.3113,4.3186,4.3181,4.3175,4.3174,4.3218,4.3214,4.3363,4.3382,4.3258,4.3259,4.326,0,4.2714,4.2761,4.2803,4.2832,4.2854,4.2902,4.2932,4.2938,4.2969,4.301,4.3044,4.3091,4.3129,4.3206,4.3222,4.3263,4.3258,4.3307,4.3264,4.3262,4.3257,4.3254,4.3258,4.3315,4.3317,4.3318,4.3319,0,4.283,4.2835,4.288,4.2927,4.2963,4.2999,4.3034,4.3058,4.3068,4.3103,4.3153,4.3182,4.3239,4.3285,4.3327,4.3344,4.3332,4.3332,4.3345,4.3345,4.334,4.3342,4.3197,4.3329,4.3328,4.3327,4.3326,4.3326,4.2911,4.2952,4.2987,4.3037,4.3064,4.3096,4.3135,4.3151,4.3194,4.3243,4.3243,4.3297,4.3327,4.3382,4.3402,4.3442,4.3426,4.3444,4.3448,4.3453,4.3456,4.3334,4.3449,4.3449,4.3449,4.3449,4.3448,0,4.3026,4.3048,4.3093,4.3143,4.3181,4.3169,4.3206,4.3238,4.3286,4.3317,4.3354,4.341,4.3454,4.3474,4.3516,4.3545,4.354,4.3556,4.3553,4.3557,4.3469,4.3453,4.3558,4.3558,4.3558,4.3558,4.3558,4.3558,4.309,4.3157,4.3166,4.3245,4.3266,4.3321,4.3343,4.3371,4.3395,4.3459,4.3497,4.351,4.3535,4.3579,4.3618,4.3622,4.3638,4.3655,4.3657,4.3574,4.3563,4.3552,4.3538,4.3659,4.3659,4.3741,4.3742,4.3742]}]]